Regional Weather Roundup
Issued by NWS

Home | Current Version | Previous Version | Graphics & Text | Print | Product List | Glossary On
Versions: 1 2 3 4 5 6 7 8 9 10 11 12 13 14 15 16 17 18 19 20 21 22 23 24 25 26 27 28 29 30 31 32 33 34 35 36 37 38 39 40 41 42 43 44 45 46 47 48 49 50
000
ASUS43 KLSX 231957
RWRMO

WEATHER SUMMARY FOR MISSOURI
NATIONAL WEATHER SERVICE SPRINGFIELD MO
300 PM CDT THU MAR 23 2017

NOTE: "FAIR" INDICATES FEW OR NO CLOUDS BELOW 12,000 FEET WITH NO
       SIGNIFICANT WEATHER AND/OR OBSTRUCTIONS TO VISIBILITY.
       CURRENT SKY AND/OR WEATHER CONDITIONS ARE NOT AVAILABLE FOR
       CHILLICOTHE AND FARMINGTON.

MOZ001>031-035>038-043-044-053-054-232100-
...NORTHERN AND WESTERN MISSOURI...

CITY           SKY/WX    TMP DP  RH WIND       PRES   REMARKS
KANSAS CTY INT MOSUNNY   77  51  40 S28G37    29.83F
LEE`S SUMMIT   SUNNY     76  50  40 S21G30    29.88F
ST JOSEPH      SUNNY     77  52  41 S24G36    29.80F
CHILLICOTHE      N/A     75  50  41 S18G26    29.88F

$$
MOZ066>068-077>081-088>096-101>105-232100-
...SOUTHWEST MISSOURI...

CITY           SKY/WX    TMP DP  RH WIND       PRES   REMARKS
SPRINGFIELD    SUNNY     75  51  43 S16G28    30.01F
JOPLIN         SUNNY     78  50  37 S18G29    29.95F
BRANSON        MOSUNNY   73  54  49 S13G22    30.06F

$$
MOZ032>034-039>042-045>050-055>058-069>072-232100-
...CENTRAL MISSOURI...

CITY           SKY/WX    TMP DP  RH WIND       PRES   REMARKS
COLUMBIA       NOT AVBL
JEFFERSON CITY SUNNY     77  49  37 S16G25    29.99F
ROLLA          SUNNY     74  48  39 S15G26    30.03F
SEDALIA        SUNNY     80  53  39 S24G39    29.95F
WARRENSBURG    SUNNY     77  46  33 S24G30    29.90F

$$
MOZ051-052-059>065-232100-
...EAST CENTRAL MISSOURI...

CITY           SKY/WX    TMP DP  RH WIND       PRES   REMARKS
ST LOUIS INTL  PTSUNNY   53  39  59 SE14      30.14F

$$
MOZ072>076-082>087-097>100-106>115-232100-
...SOUTH CENTRAL AND SOUTHEAST MISSOURI...

CITY           SKY/WX    TMP DP  RH WIND       PRES   REMARKS
CAPE GIRARDEAU SUNNY     60  37  42 SE10      30.19F
POPLAR BLUFF   SUNNY     62  44  51 SE7       30.17F
WEST PLAINS    SUNNY     71  48  43 SE15G21   30.11F

$$



USA.gov is the U.S. government's official web portal to all federal, state and local government web resources and services.